Time,TemperatureF,DewpointF,PressureIn,WindDirection,WindDirectionDegrees,WindSpeedMPH,WindSpeedGustMPH,Humidity,HourlyPrecipIn,Conditions,Clouds,dailyrainin,SolarRadiationWatts/m^2,SoftwareType,DateUTC
2013-04-12 00:03:00,72.0,67.0,-100.00,SE,140,6.0,17.0,85,0.00,,,0.00,0.000000,,2013-04-12 04:03:00,
2013-04-12 00:23:00,72.0,68.0,-100.00,SE,142,2.0,16.0,86,0.00,,,0.00,0.000000,,2013-04-12 04:23:00,
2013-04-12 00:33:00,72.0,68.0,-100.00,SE,142,2.0,16.0,86,0.00,,,0.00,0.000000,,2013-04-12 04:33:00,
2013-04-12 00:43:00,72.0,68.0,-100.00,SE,142,2.0,16.0,86,0.00,,,0.00,0.000000,,2013-04-12 04:43:00,
2013-04-12 00:53:00,72.0,68.0,-100.00,SE,142,2.0,16.0,86,0.00,,,0.00,0.000000,,2013-04-12 04:53:00,
2013-04-12 01:03:00,72.0,68.0,-100.00,SE,142,2.0,16.0,86,0.00,,,0.00,0.000000,,2013-04-12 05:03:00,
2013-04-12 01:32:00,71.0,68.0,-100.00,SSE,153,2.0,6.0,89,0.00,,,0.00,0.000000,,2013-04-12 05:32:00,
2013-04-12 01:42:00,71.0,68.0,-100.00,SSE,153,2.0,6.0,89,0.00,,,0.00,0.000000,,2013-04-12 05:42:00,
2013-04-12 01:52:00,71.0,68.0,-100.00,SSE,153,2.0,6.0,89,0.00,,,0.00,0.000000,,2013-04-12 05:52:00,
2013-04-12 02:02:00,71.0,68.0,-100.00,SSE,153,2.0,6.0,89,0.00,,,0.00,0.000000,,2013-04-12 06:02:00,
2013-04-12 02:32:00,71.0,68.0,-100.00,WNW,299,1.0,4.0,90,0.00,,,0.00,0.000000,,2013-04-12 06:32:00,
2013-04-12 02:42:00,71.0,68.0,-100.00,WNW,299,1.0,4.0,90,0.00,,,0.00,0.000000,,2013-04-12 06:42:00,
2013-04-12 02:52:00,71.0,68.0,-100.00,WNW,299,1.0,4.0,90,0.00,,,0.00,0.000000,,2013-04-12 06:52:00,
2013-04-12 03:02:00,71.0,68.0,-100.00,WNW,299,1.0,4.0,90,0.00,,,0.00,0.000000,,2013-04-12 07:02:00,
2013-04-12 03:32:00,71.0,69.0,-100.00,West,265,2.0,5.0,92,0.00,,,0.00,0.000000,,2013-04-12 07:32:00,
2013-04-12 03:42:00,71.0,69.0,-100.00,West,265,2.0,5.0,92,0.00,,,0.00,0.000000,,2013-04-12 07:42:00,
2013-04-12 03:52:00,71.0,69.0,-100.00,West,265,2.0,5.0,92,0.00,,,0.00,0.000000,,2013-04-12 07:52:00,
2013-04-12 04:03:00,71.0,69.0,-100.00,West,265,2.0,5.0,92,0.00,,,0.00,0.000000,,2013-04-12 08:03:00,
2013-04-12 04:22:00,72.0,70.0,-100.00,ESE,123,4.0,9.0,92,0.00,,,0.00,0.000000,,2013-04-12 08:22:00,
2013-04-12 04:32:00,72.0,70.0,-100.00,ESE,123,4.0,9.0,92,0.00,,,0.00,0.000000,,2013-04-12 08:32:00,
2013-04-12 04:43:00,72.0,70.0,-100.00,ESE,123,4.0,9.0,92,0.00,,,0.00,0.000000,,2013-04-12 08:43:00,
2013-04-12 04:53:00,72.0,70.0,-100.00,ESE,123,4.0,9.0,92,0.00,,,0.00,0.000000,,2013-04-12 08:53:00,
2013-04-12 05:02:00,72.0,70.0,-100.00,ESE,123,4.0,9.0,92,0.00,,,0.00,0.000000,,2013-04-12 09:02:00,
2013-04-12 05:22:00,72.0,69.0,-100.00,South,181,3.0,10.0,91,0.00,,,0.00,0.000000,,2013-04-12 09:22:00,
2013-04-12 05:33:00,72.0,69.0,-100.00,South,181,3.0,10.0,91,0.00,,,0.00,0.000000,,2013-04-12 09:33:00,
2013-04-12 05:44:00,72.0,69.0,-100.00,South,181,3.0,10.0,91,0.00,,,0.00,0.000000,,2013-04-12 09:44:00,
2013-04-12 05:53:00,72.0,69.0,-100.00,South,181,3.0,10.0,91,0.00,,,0.00,0.000000,,2013-04-12 09:53:00,
2013-04-12 06:03:00,72.0,69.0,-100.00,South,181,3.0,10.0,91,0.00,,,0.00,0.000000,,2013-04-12 10:03:00,
2013-04-12 06:34:00,72.0,69.0,-100.00,SE,142,3.0,10.0,91,0.00,,,0.00,0.000000,,2013-04-12 10:34:00,
2013-04-12 06:43:00,72.0,69.0,-100.00,SE,142,3.0,10.0,91,0.00,,,0.00,0.000000,,2013-04-12 10:43:00,
2013-04-12 06:53:00,72.0,69.0,-100.00,SE,142,3.0,10.0,91,0.00,,,0.00,0.000000,,2013-04-12 10:53:00,
2013-04-12 07:03:00,72.0,69.0,-100.00,SE,142,3.0,10.0,91,0.00,,,0.00,0.000000,,2013-04-12 11:03:00,
2013-04-12 07:22:00,73.0,70.0,-100.00,ESE,122,2.0,10.0,89,0.00,,,0.00,0.000000,,2013-04-12 11:22:00,
2013-04-12 07:33:00,73.0,70.0,-100.00,ESE,122,2.0,10.0,89,0.00,,,0.00,0.000000,,2013-04-12 11:33:00,
2013-04-12 07:43:00,73.0,70.0,-100.00,ESE,122,2.0,10.0,89,0.00,,,0.00,0.000000,,2013-04-12 11:43:00,
2013-04-12 07:52:00,73.0,70.0,-100.00,ESE,122,2.0,10.0,89,0.00,,,0.00,0.000000,,2013-04-12 11:52:00,
2013-04-12 08:03:00,73.0,70.0,-100.00,ESE,122,2.0,10.0,89,0.00,,,0.00,0.000000,,2013-04-12 12:03:00,
2013-04-12 08:22:00,73.0,69.0,-100.00,NNE,19,1.0,6.0,88,0.00,,,0.00,7.000000,,2013-04-12 12:22:00,
2013-04-12 08:33:00,73.0,69.0,-100.00,NNE,19,1.0,6.0,88,0.00,,,0.00,7.000000,,2013-04-12 12:33:00,
2013-04-12 08:43:00,73.0,69.0,-100.00,NNE,19,1.0,6.0,88,0.00,,,0.00,7.000000,,2013-04-12 12:43:00,
2013-04-12 08:53:00,73.0,69.0,-100.00,NNE,19,1.0,6.0,88,0.00,,,0.00,7.000000,,2013-04-12 12:53:00,
2013-04-12 09:03:00,73.0,69.0,-100.00,NNE,19,1.0,6.0,88,0.00,,,0.00,7.000000,,2013-04-12 13:03:00,
2013-04-12 09:22:00,75.0,71.0,-100.00,WSW,249,2.0,6.0,87,0.00,,,0.00,61.000000,,2013-04-12 13:22:00,
2013-04-12 09:32:00,75.0,71.0,-100.00,WSW,249,2.0,6.0,87,0.00,,,0.00,61.000000,,2013-04-12 13:32:00,
2013-04-12 09:43:00,75.0,71.0,-100.00,WSW,249,2.0,6.0,87,0.00,,,0.00,61.000000,,2013-04-12 13:43:00,
2013-04-12 09:53:00,75.0,71.0,-100.00,WSW,249,2.0,6.0,87,0.00,,,0.00,61.000000,,2013-04-12 13:53:00,
2013-04-12 10:03:00,75.0,71.0,-100.00,WSW,249,2.0,6.0,87,0.00,,,0.00,61.000000,,2013-04-12 14:03:00,
2013-04-12 10:23:00,80.0,72.0,-100.00,West,264,3.0,9.0,77,0.00,,,0.00,327.000000,,2013-04-12 14:23:00,
2013-04-12 10:33:00,80.0,72.0,-100.00,West,264,3.0,9.0,77,0.00,,,0.00,327.000000,,2013-04-12 14:33:00,
2013-04-12 10:43:00,80.0,72.0,-100.00,West,264,3.0,9.0,77,0.00,,,0.00,327.000000,,2013-04-12 14:43:00,
2013-04-12 10:54:00,80.0,72.0,-100.00,West,264,3.0,9.0,77,0.00,,,0.00,327.000000,,2013-04-12 14:54:00,
2013-04-12 11:03:00,80.0,72.0,-100.00,West,264,3.0,9.0,77,0.00,,,0.00,327.000000,,2013-04-12 15:03:00,
2013-04-12 11:04:00,82.0,71.0,-100.00,WSW,250,5.0,16.0,69,0.00,,,-99.99,456.000000,,2013-04-12 15:04:00,
2013-04-12 11:33:00,82.0,71.0,-100.00,WSW,250,5.0,16.0,69,0.00,,,-99.99,456.000000,,2013-04-12 15:33:00,
2013-04-12 11:43:00,82.0,71.0,-100.00,WSW,250,5.0,16.0,69,0.00,,,-99.99,456.000000,,2013-04-12 15:43:00,
2013-04-12 11:53:00,82.0,71.0,-100.00,WSW,250,5.0,16.0,69,0.00,,,-99.99,456.000000,,2013-04-12 15:53:00,
2013-04-12 12:34:00,86.0,70.0,-100.00,WSW,257,9.0,22.0,60,0.00,,,-99.99,691.000000,,2013-04-12 16:34:00,
2013-04-12 12:43:00,86.0,70.0,-100.00,WSW,257,9.0,22.0,60,0.00,,,-99.99,691.000000,,2013-04-12 16:43:00,
2013-04-12 12:53:00,86.0,70.0,-100.00,WSW,257,9.0,22.0,60,0.00,,,-99.99,691.000000,,2013-04-12 16:53:00,
2013-04-12 13:03:00,86.0,70.0,-100.00,WSW,257,9.0,22.0,60,0.00,,,-99.99,691.000000,,2013-04-12 17:03:00,
2013-04-12 13:04:00,87.0,64.0,-100.00,West,260,8.0,20.0,47,0.00,,,0.00,676.000000,,2013-04-12 17:04:00,
2013-04-12 13:34:00,87.0,64.0,-100.00,West,260,8.0,20.0,47,0.00,,,0.00,676.000000,,2013-04-12 17:34:00,
2013-04-12 13:47:00,87.0,64.0,-100.00,West,260,8.0,20.0,47,0.00,,,0.00,676.000000,,2013-04-12 17:47:00,
2013-04-12 14:04:00,90.0,66.0,-100.00,West,267,7.0,17.0,45,0.00,,,0.00,918.000000,,2013-04-12 18:04:00,
2013-04-12 15:33:00,89.0,65.0,-100.00,West,262,8.0,24.0,45,0.00,,,0.00,707.000000,,2013-04-12 19:33:00,
2013-04-12 15:43:00,89.0,65.0,-100.00,West,262,8.0,24.0,45,0.00,,,0.00,707.000000,,2013-04-12 19:43:00,
2013-04-12 15:53:00,89.0,65.0,-100.00,West,262,8.0,24.0,45,0.00,,,0.00,707.000000,,2013-04-12 19:53:00,
2013-04-12 16:02:00,89.0,65.0,-100.00,West,262,8.0,24.0,45,0.00,,,0.00,707.000000,,2013-04-12 20:02:00,
2013-04-12 16:33:00,86.0,64.0,-100.00,WSW,258,4.0,17.0,48,0.00,,,0.00,307.000000,,2013-04-12 20:33:00,
2013-04-12 16:43:00,86.0,64.0,-100.00,WSW,258,4.0,17.0,48,0.00,,,0.00,307.000000,,2013-04-12 20:43:00,
2013-04-12 16:52:00,86.0,64.0,-100.00,WSW,258,4.0,17.0,48,0.00,,,0.00,307.000000,,2013-04-12 20:52:00,
2013-04-12 17:02:00,86.0,64.0,-100.00,WSW,258,4.0,17.0,48,0.00,,,0.00,307.000000,,2013-04-12 21:02:00,
2013-04-12 17:33:00,84.0,66.0,-100.00,West,267,7.0,17.0,54,0.00,,,0.00,252.000000,,2013-04-12 21:33:00,
2013-04-12 17:43:00,84.0,66.0,-100.00,West,267,7.0,17.0,54,0.00,,,0.00,252.000000,,2013-04-12 21:43:00,
2013-04-12 17:53:00,84.0,66.0,-100.00,West,267,7.0,17.0,54,0.00,,,0.00,252.000000,,2013-04-12 21:53:00,
2013-04-12 18:02:00,84.0,66.0,-100.00,West,267,7.0,17.0,54,0.00,,,0.00,252.000000,,2013-04-12 22:02:00,
2013-04-12 18:04:00,83.0,68.0,-100.00,WSW,244,5.0,17.0,60,0.00,,,0.00,212.000000,,2013-04-12 22:04:00,
2013-04-12 18:33:00,83.0,68.0,-100.00,WSW,244,5.0,17.0,60,0.00,,,0.00,212.000000,,2013-04-12 22:33:00,
2013-04-12 18:43:00,83.0,68.0,-100.00,WSW,244,5.0,17.0,60,0.00,,,0.00,212.000000,,2013-04-12 22:43:00,
2013-04-12 18:52:00,83.0,68.0,-100.00,WSW,244,5.0,17.0,60,0.00,,,0.00,212.000000,,2013-04-12 22:52:00,
2013-04-12 19:22:00,79.0,67.0,-100.00,West,273,7.0,16.0,67,0.00,,,0.00,72.000000,,2013-04-12 23:22:00,
2013-04-12 19:32:00,79.0,67.0,-100.00,West,273,7.0,16.0,67,0.00,,,0.00,72.000000,,2013-04-12 23:32:00,
2013-04-12 19:42:00,79.0,67.0,-100.00,West,273,7.0,16.0,67,0.00,,,0.00,72.000000,,2013-04-12 23:42:00,
2013-04-12 19:52:00,79.0,67.0,-100.00,West,273,7.0,16.0,67,0.00,,,0.00,72.000000,,2013-04-12 23:52:00,
2013-04-12 20:02:00,79.0,67.0,-100.00,West,273,7.0,16.0,67,0.00,,,0.00,72.000000,,2013-04-13 00:02:00,
2013-04-12 20:32:00,76.0,67.0,-100.00,West,278,5.0,12.0,73,0.00,,,0.00,15.000000,,2013-04-13 00:32:00,
2013-04-12 20:42:00,76.0,67.0,-100.00,West,278,5.0,12.0,73,0.00,,,0.00,15.000000,,2013-04-13 00:42:00,
2013-04-12 20:52:00,76.0,67.0,-100.00,West,278,5.0,12.0,73,0.00,,,0.00,15.000000,,2013-04-13 00:52:00,
2013-04-12 21:02:00,76.0,67.0,-100.00,West,278,5.0,12.0,73,0.00,,,0.00,15.000000,,2013-04-13 01:02:00,
2013-04-12 21:23:00,74.0,66.0,-100.00,West,280,3.0,9.0,75,0.00,,,0.00,0.000000,,2013-04-13 01:23:00,
2013-04-12 21:33:00,74.0,66.0,-100.00,West,280,3.0,9.0,75,0.00,,,0.00,0.000000,,2013-04-13 01:33:00,
2013-04-12 21:43:00,74.0,66.0,-100.00,West,280,3.0,9.0,75,0.00,,,0.00,0.000000,,2013-04-13 01:43:00,
2013-04-12 21:52:00,74.0,66.0,-100.00,West,280,3.0,9.0,75,0.00,,,0.00,0.000000,,2013-04-13 01:52:00,
2013-04-12 22:02:00,74.0,66.0,-100.00,West,280,3.0,9.0,75,0.00,,,0.00,0.000000,,2013-04-13 02:02:00,
2013-04-12 22:23:00,71.0,66.0,-100.00,WSW,246,0.0,3.0,84,0.00,,,0.00,0.000000,,2013-04-13 02:23:00,
2013-04-12 22:33:00,71.0,66.0,-100.00,WSW,246,0.0,3.0,84,0.00,,,0.00,0.000000,,2013-04-13 02:33:00,
2013-04-12 22:43:00,71.0,66.0,-100.00,WSW,246,0.0,3.0,84,0.00,,,0.00,0.000000,,2013-04-13 02:43:00,
2013-04-12 22:53:00,71.0,66.0,-100.00,WSW,246,0.0,3.0,84,0.00,,,0.00,0.000000,,2013-04-13 02:53:00,
2013-04-12 23:03:00,71.0,66.0,-100.00,WSW,246,0.0,3.0,84,0.00,,,0.00,0.000000,,2013-04-13 03:03:00,
2013-04-12 23:33:00,69.0,65.0,-100.00,SSW,194,0.0,1.0,87,0.00,,,0.00,0.000000,,2013-04-13 03:33:00,
2013-04-12 23:43:00,69.0,65.0,-100.00,SSW,194,0.0,1.0,87,0.00,,,0.00,0.000000,,2013-04-13 03:43:00,
2013-04-12 23:54:00,69.0,65.0,-100.00,SSW,194,0.0,1.0,87,0.00,,,0.00,0.000000,,2013-04-13 03:54:00,